Weather in Istiklol

Tajikistan     40°33′56″N   69°38′30″E
temp.,
°C
wind,
m/s
gust,
m/s
humid.,
%
clouds,
%
prec.,
mm/h
press.,
hPa
HPBL,
m
13 april, tue
tue1323:00+12e226328 0.6 102056
02:00+11ese236583 0.0 102051
05:00+11ene2262100 0.2 102069
08:00+11e3362100 0.4 1022371
11:00+12ene2360100 1.2 1022426
14:00+14ssw1249100 0.1 10221044
17:00+15ese223497 0.2 10201107
20:00+12ese4558100 0.1 1021333
14 april, wed
wed1423:00+11ene445820 0.3 101987
02:00+10ene45624 0.0 101874
05:00+10ene446196 0.0 101850
08:00+14e5852100 0.0 1017555
11:00+17e6741100 0.0 1016887
14:00+19ese443231 0.0 10141231
17:00+20se33301 0.0 10131168
20:00+16ne11446 0.0 101411
15 april, thu
thu1523:00+15n22461 0.0 101411
02:00+13ese0052100 0.0 101311
05:00+12nne1154100 0.0 101311
08:00+15w114492 0.0 1015157
11:00+19ssw223875 0.0 10141030
14:00+20wsw4338100 0.0 10131553
17:00+19wnw5544100 0.0 1013880
20:00+15nnw4451100 0.0 1014134
16 april, fri
fri1623:00+14nnw3345100 0.0 101443
02:00+14nnw4444100 0.0 101354
05:00+13nnw444511 0.0 101440
08:00+16nw3432100 0.0 1015262
11:00+19wnw332281 0.0 1014978
14:00+21wnw55170 0.0 10131443
17:00+21wnw44185 0.0 10131199
20:00+16nnw44345 0.0 101457
17 april, sat
sat1723:00+15n33313 0.0 101325
02:00+14nnw33295 0.0 101216
05:00+13e1132100 0.0 101210
08:00+17wnw1126100 0.0 1012193
11:00+20wsw3223100 0.0 10111218
14:00+22wnw542310 0.0 10101820
17:00+20nw7726100 0.0 10111941
20:00+16wnw6945100 0.0 1015867